Weather History for Grand Rapids, MN

Change the Weather History Date:

Wednesday, June 12, 2013

  Actual Average Record
Temperature  
Mean Temperature 58 °F -  
Max Temperature 71 °F 75 °F 92 °F (1920)
Min Temperature 46 °F 50 °F 32 °F (1947)
Degree Days  
Heating Degree Days 8    
Growing Degree Days 8 (Base 50)    
Moisture  
Dew Point 47 °F    
Average Humidity 77    
Maximum Humidity 94    
Minimum Humidity 46    
Precipitation  
Precipitation 0.00 in - - ()
Sea Level Pressure  
Sea Level Pressure 29.92 in    
Wind  
Wind Speed 2 mph (North)    
Max Wind Speed 9 mph    
Max Gust Speed -    
Visibility 10 miles    
Events      
Averages and records for this station are not official NWS values.
T = Trace of Precipitation, MM = Missing Value Source: NWS Daily Summary

Daily Weather History Graph

Daily Weather History Graph

Search for Another Location

Airport:

Trip Planner

Search our weather history database for the weather conditions in past years. The results will help you decide how hot, cold, wet, or windy it might be!

Date:

Astronomy

Jun. 12, 2013 Rise Set
Actual Time 5:17 AM CDT 9:10 PM CDT
Civil Twilight 4:37 AM CDT 9:50 PM CDT
Nautical Twilight 3:43 AM CDT 10:45 PM CDT
Astronomical Twilight 2:21 AM CDT 12:07 AM CDT
Moon 9:09 AM CDT (6/12) 11:32 PM CDT (6/12)
Length of Visible Light 17h 12m
Length of Day
15h 52m
Waxing Crescent, 14% of the Moon is Illuminated
Jun 12
Waxing Crescent
Jun 16
First Quarter
Jun 23
Full
Jun 29
Last Quarter
Jul 8
New

Hourly Weather History & Observations

Time (CDT) Temp. Windchill Dew Point Humidity Pressure Visibility Wind Dir Wind Speed Gust Speed Precip Events Conditions
12:15 AM 51.8 °F - 46.4 °F 82% 29.93 in 10.0 mi SSE 3.5 mph - N/A   Clear
12:35 AM 51.8 °F - 46.4 °F 82% 29.92 in 10.0 mi Calm Calm - N/A   Clear
12:55 AM 51.8 °F - 46.4 °F 82% 29.92 in 10.0 mi Calm Calm - N/A   Clear
1:15 AM 50.0 °F - 44.6 °F 82% 29.92 in 10.0 mi Calm Calm - N/A   Clear
1:35 AM 50.0 °F - 44.6 °F 82% 29.92 in 10.0 mi Calm Calm - N/A   Clear
1:55 AM 50.0 °F - 44.6 °F 82% 29.91 in 10.0 mi Calm Calm - N/A   Clear
2:15 AM 48.2 °F - 44.6 °F 87% 29.91 in 10.0 mi Calm Calm - N/A   Clear
2:35 AM 48.2 °F - 44.6 °F 87% 29.92 in 10.0 mi Calm Calm - N/A   Clear
2:55 AM 48.2 °F - 44.6 °F 87% 29.92 in 10.0 mi Calm Calm - N/A   Clear
3:15 AM 48.2 °F - 44.6 °F 87% 29.92 in 10.0 mi Calm Calm - N/A   Clear
3:35 AM 48.2 °F - 44.6 °F 87% 29.92 in 10.0 mi Calm Calm - N/A   Clear
3:55 AM 46.4 °F - 44.6 °F 93% 29.91 in 10.0 mi Calm Calm - N/A   Clear
4:15 AM 46.4 °F 45.2 °F 42.8 °F 87% 29.90 in 10.0 mi South 3.5 mph - N/A   Clear
4:35 AM 46.4 °F - 44.6 °F 93% 29.91 in 10.0 mi Calm Calm - N/A   Clear
4:55 AM 46.4 °F - 44.6 °F 93% 29.91 in 9.0 mi Calm Calm - N/A   Clear
5:15 AM 46.4 °F - 44.6 °F 93% 29.93 in 10.0 mi Calm Calm - N/A   Clear
5:35 AM 46.4 °F - 44.6 °F 93% 29.92 in 10.0 mi Calm Calm - N/A   Clear
5:55 AM 46.4 °F 45.2 °F 44.6 °F 93% 29.91 in 7.0 mi North 3.5 mph - N/A   Clear
6:15 AM 48.2 °F - 44.6 °F 87% 29.92 in 10.0 mi NNW 4.6 mph - N/A   Clear
6:35 AM 51.8 °F - 48.2 °F 88% 29.91 in 10.0 mi Calm Calm - N/A   Clear
6:55 AM 53.6 °F - 51.8 °F 94% 29.91 in 10.0 mi Calm Calm - N/A   Clear
7:15 AM 57.2 °F - 51.8 °F 82% 29.92 in 10.0 mi Calm Calm - N/A   Clear
7:35 AM 60.8 °F - 48.2 °F 63% 29.92 in 10.0 mi Calm Calm - N/A   Clear
7:55 AM 62.6 °F - 48.2 °F 59% 29.92 in 10.0 mi Calm Calm - N/A   Clear
8:15 AM 64.4 °F - 50.0 °F 59% 29.92 in 10.0 mi North 4.6 mph - N/A   Clear
8:35 AM 64.4 °F - 51.8 °F 64% 29.92 in 10.0 mi NNW 5.8 mph - N/A   Clear
8:55 AM 66.2 °F - 51.8 °F 60% 29.93 in 10.0 mi NNE 4.6 mph - N/A   Clear
9:15 AM 66.2 °F - 51.8 °F 60% 29.92 in 10.0 mi NNW 4.6 mph - N/A   Clear
9:35 AM 66.2 °F - 51.8 °F 60% 29.93 in 10.0 mi NNE 3.5 mph - N/A   Clear
9:55 AM 69.8 °F - 51.8 °F 53% 29.93 in 10.0 mi North 3.5 mph - N/A   Clear
10:15 AM 69.8 °F - 50.0 °F 49% 29.92 in 10.0 mi NNE 5.8 mph - N/A   Clear
10:35 AM 69.8 °F - 51.8 °F 53% 29.91 in 10.0 mi NNE 9.2 mph - N/A   Clear
10:55 AM 71.6 °F - 50.0 °F 46% 29.92 in 10.0 mi East 4.6 mph - N/A   Clear